FLOCK 4BE-11 (60501 NORAD) Tracking and Keplerian Element Data

This shows tracking and keplerian element data for the satellite.

Feedback or suggestion? Click here.




ElementValue
Catalog60501
NameFLOCK 4BE-11
Epoch Orbit864
Epoch Day286.75829271
Epoch Year2024
RAAN1.4116
Inclination97.4335
Eccentricity0.0005043
Argument of Perigee290.4389
Mean Anonmoly69.6304
Mean Motion15.1984983
Decay Rate0.00020262
L11 60501U 24149AK 24286.75829271 .00020262 00000+0 94590-3 0 9996
L22 60501 97.4335 1.4116 0005043 290.4389 69.6304 15.19849830 8649



Live tracking and technical data element details for FLOCK 4BE-11 (NORAD 60501). FLOCK 4BE-11 can be tracked NOW for your location showing map with azimuth and elevation plus other details from your city location.







IsCatalogInMostPopularTable: catalog: 60501, numindb: 6
Update: records affected: 1



GetName: 60501 FLOCK 4BE-11

Hit Count: updated at: Wed, 04 Dec 2024 18:13:49 GMT